Hourly Data Report for October 23, 2014

All times are specified in Local Standard Time (LST). Add 1 hour to adjust for Daylight Saving Time where and when it is observed.

CHARLOTTETOWN A
PRINCE EDWARD ISLAND

46°17'21.000" N
63°07'09.000" W
48.50 m
8300301
71706
YYG

Download Data

Hourly Data (October 2014)
Hourly Data Report for October 23, 2014
Temp Definition
°C
Dew Point Temp Definition
°C
Rel Hum Definition
%
Wind Dir Definition
10's deg

Wind Spd Definition
km/h
Visibility Definition
km
Stn Press Definition
kPa
Hmdx Definition


Wind Chill Definition


Weather Definition


TIME
00:00 Legend Double Dagger 9.2 6.5 83 5 18 24.1 102.01     LegendNANA
01:00 Legend Double Dagger 9.2 6.8 85 5 19 24.1 101.95     LegendNANA
02:00 Legend Double Dagger 9.3 7.3 87 6 16 24.1 101.92     Mostly Cloudy
03:00 Legend Double Dagger 9.2 7.3 88 5 16 24.1 101.85     LegendNANA
04:00 Legend Double Dagger 9.2 7.2 87 5 16 24.1 101.79     LegendNANA
05:00 Legend Double Dagger 9.4 6.9 84 5 21 24.1 101.74     Mostly Cloudy
06:00 Legend Double Dagger 9.5 6.8 83 6 21 24.1 101.74     LegendNANA
07:00 Legend Double Dagger 9.5 7.0 84 6 19 24.1 101.71     LegendNANA
08:00 Legend Double Dagger 10.3 7.2 81 6 24 24.1 101.68     Mostly Cloudy
09:00 Legend Double Dagger 11.1 7.3 77 7 27 24.1 101.62     LegendNANA
10:00 Legend Double Dagger 12.0 6.7 70 7 22 24.1 101.59     LegendNANA
11:00 Legend Double Dagger 13.5 6.7 63 8 24 24.1 101.51     Mostly Cloudy
12:00 Legend Double Dagger 13.7 7.1 64 5 23 24.1 101.43     LegendNANA
13:00 Legend Double Dagger 13.6 7.4 66 7 22 24.1 101.33     LegendNANA
14:00 Legend Double Dagger 14.3 7.4 63 7 20 24.1 101.28     Mostly Cloudy
15:00 Legend Double Dagger 12.7 8.4 75 4 19 24.1 101.20     LegendNANA
16:00 Legend Double Dagger 11.9 8.6 80 3 24 24.1 101.08     Rain Showers
17:00 Legend Double Dagger 11.5 8.0 79 4 20 24.1 101.04     Mostly Cloudy
18:00 Legend Double Dagger 10.8 8.7 87 5 22 24.1 101.01     Rain Showers
19:00 Legend Double Dagger 10.4 9.0 91 4 21 24.1 100.96     Rain Showers
20:00 Legend Double Dagger 10.3 8.7 90 5 24 24.1 100.91     Rain Showers
21:00 Legend Double Dagger 10.1 8.6 90 4 26 24.1 100.79     Rain Showers
22:00 Legend Double Dagger 10.2 8.5 89 4 28 24.1 100.70     Rain Showers
23:00 Legend Double Dagger 10.0 8.6 91 4 27 24.1 100.61     Rain Showers

Notes on Data Quality.

Legend

  • E = Estimated
  • M = Missing
  • NA = Not Available
  • ‡ = Partner data that is not subject to review by the National Climate Archives
Date modified: